This is the latest recevied weather packets stored in our database for station/object KB1RMA-13. If no packets are shown the sender has not sent any weather packets the latest 10 day(s).
| Time | Temp. | Humidity | Pressure | Rain* | Wind** | Luminosity | Snow |
|---|---|---|---|---|---|---|---|
| 1778012786 | 26.11° C | 44% | 1004.3 hPa | 0 mm | - | 136 W/m² | - |
| 1778012483 | 26.67° C | 43% | 1004.4 hPa | 0 mm | - | 158 W/m² | - |
| 1778012180 | 26.67° C | 43% | 1004.4 hPa | 0 mm | - | 323 W/m² | - |
| 1778011877 | 26.11° C | 44% | 1004.2 hPa | 0 mm | - | 529 W/m² | - |
| 1778011575 | 26.11° C | 45% | 1004.3 hPa | 0 mm | - | 547 W/m² | - |
| 1778011272 | 26.67° C | 45% | 1004.4 hPa | 0 mm | - | 559 W/m² | - |
| 1778010968 | 26.11° C | 45% | 1004.5 hPa | 0 mm | - | 574 W/m² | - |
| 1778010666 | 26.11° C | 45% | 1004.5 hPa | 0 mm | - | 598 W/m² | - |
| 1778010363 | 26.11° C | 46% | 1004.6 hPa | 0 mm | - | 561 W/m² | - |
| 1778010058 | 26.11° C | 46% | 1004.8 hPa | 0 mm | - | 609 W/m² | - |
| 1778009755 | 26.11° C | 46% | 1004.9 hPa | 0 mm | - | 637 W/m² | - |
| 1778009452 | 26.67° C | 46% | 1005 hPa | 0 mm | - | 658 W/m² | - |
| 1778009151 | 26.11° C | 47% | 1004.7 hPa | 0 mm | - | 673 W/m² | - |
| 1778008848 | 25.56° C | 46% | 1004.8 hPa | 0 mm | - | 693 W/m² | - |
| 1778008546 | 26.11° C | 46% | 1005.1 hPa | 0 mm | - | 693 W/m² | - |
| 1778008244 | 26.11° C | 47% | 1005.2 hPa | 0 mm | - | 702 W/m² | - |
| 1778007944 | 26.11° C | 48% | 1005.3 hPa | 0 mm | - | 717 W/m² | - |
| 1778007640 | 26.11° C | 46% | 1005.2 hPa | 0 mm | - | 750 W/m² | - |
| 1778007337 | 26.11° C | 48% | 1005 hPa | 0 mm | - | 749 W/m² | - |
| 1778007034 | 25.56° C | 51% | 1005.2 hPa | 0 mm | - | 776 W/m² | - |
| 1778006730 | 25.56° C | 49% | 1005.4 hPa | 0 mm | - | 806 W/m² | - |
| 1778006427 | 25.56° C | 50% | 1005.8 hPa | 0 mm | - | 835 W/m² | - |
| 1778006124 | 25° C | 50% | 1005.7 hPa | 0 mm | - | 861 W/m² | - |
| 1778005822 | 25.56° C | 49% | 1005.6 hPa | 0 mm | - | 668 W/m² | - |
| 1778005518 | 26.11° C | 48% | 1005.8 hPa | 0 mm | - | 815 W/m² | - |
* Rain latest hour (hover to see other rain measurements)
** Current wind speed in m/s (hover to see current wind gust speed)